User: anonymous   Login
Location: *
(39.6167°S, 171.5333°W)
Time: 03:45:15
(UTC+00:00)
Language:

deb r/b (AGENA D) - Orbit

View from above orbital plane
View from above orbital plane
View from above satellite
View from above satellite

Ground track
Ground track

The orbit data is extracted from the following two-line orbital elements,

1 18616U 69082LB  21332.72453310 -.00000073  00000-0 -17270-4 0  9996
2 18616  70.1349  86.4931 0171294 269.7155  88.4317 13.84713492714283
Epoch (UTC): 28 November 2021 17:23:19
Eccentricity: 0.0171294
inclination: 70.1349°
perigee height: 822 km
apogee height: 1072 km
right ascension of ascending node: 86.4931°
argument of perigee: 269.7155°
revolutions per day: 13.84713492
mean anomaly at epoch: 88.4317°
orbit number at epoch: 71428

The dashed part of the orbit path shows where the satellite is in the earth's shadow,  

DLR